Flag for Saint Lucia Weather past 2 weeks in Vieux Fort, Saint Lucia

Now
84 °F

Partly sunny.


Feels Like: 92 °F
Forecast: N/A
Wind: 8 mph from Southeast

Location: Hewanorra International Airport

Current Time: Aug 21, 2014 at 6:04:43 PM

Latest Report: Aug 21, 2014 at 5:00 PM


Visibility: N/A

Pressure: 29.83 "Hg

Humidity: 74%

Dew point: 75 °F

Location of Vieux FortLocation

Historic Weather in Vieux Fort — Graph

°F

Vieux Fort temperature yesterday

Maximum temperature yesterday: 88 °F (at 11:00 AM)
Minimum temperature yesterday: 79 °F (at 7:00 PM)
Average temperature yesterday: 83 °F

Past Weeks' High & Low Weather Summary

 TemperatureHumidityPressure
High88 °F (Aug 16, 11:00 AM)100% (Aug 8, 11:00 AM)30.07 "Hg (Aug 8, 11:00 AM)
Low68 °F (Aug 10, 9:00 AM)66% (Aug 9, 11:00 AM)29.83 "Hg (Aug 21, 4:00 PM)
Average82 °F81%29.96 "Hg
* Reported Aug 6 4:00 PM — Aug 21 4:00 PM, Vieux Fort, Weather by CustomWeather, © 2014

Note: Actual official high and low records may vary slightly from our data, if they occured in-between our weather recording intervals... More about our weather records

Advertising

Vieux Fort weather history for previous 24 hours

 ConditionsComfort  
Time TempWeatherWind HumidityBarometerVisibility
4:00 PM
Aug 21
86 °FPassing clouds.12 mph70%29.83 "HgN/A
2:00 PM86 °FBroken clouds.8 mph75%29.86 "HgN/A
1:00 PM86 °FScattered clouds.12 mph70%29.89 "HgN/A
12:00 PM86 °FPassing clouds.9 mph70%29.92 "HgN/A
11:00 AM86 °FPassing clouds.13 mph75%29.92 "HgN/A
10:00 AM86 °FBroken clouds.12 mph75%29.92 "HgN/A
9:00 AM84 °FBroken clouds.14 mph74%29.92 "HgN/A
8:00 AM82 °FPartly sunny.6 mph84%29.89 "HgN/A
7:00 AM79 °FBroken clouds.6 mph89%29.89 "HgN/A
6:00 AM79 °FScattered clouds.6 mph94%29.89 "HgN/A
5:00 AM77 °FPassing clouds.2 mph94%29.89 "HgN/A
4:00 AM79 °FPassing clouds.5 mph89%29.86 "HgN/A
2:00 AM79 °FPassing clouds.6 mph94%29.89 "HgN/A
1:00 AM79 °FPassing clouds.6 mph89%29.92 "HgN/A
12:00 AM77 °FPassing clouds.6 mph100%29.92 "HgN/A
11:00 PM
Aug 20
79 °FPassing clouds.7 mph89%29.95 "HgN/A
9:00 PM81 °FPassing clouds.9 mph89%29.95 "HgN/A
8:00 PM81 °FPartly cloudy.13 mph89%29.95 "HgN/A
7:00 PM79 °FPassing clouds.9 mph89%29.92 "HgN/A
6:00 PM81 °FScattered showers. Broken clouds.14 mph84%29.92 "HgN/A
Weather by CustomWeather, © 2014

See weather overviewHow to use our weather pages